Location: Adrasan
(36.3319°N, 30.4314°E)
Time: 09:24:15
(UTC+00:00)

Meteor 1-10 Rocket - Pass Details

Date: 27 May 2024
Orbit: 834 x 910 km, 81.3° (Epoch: 16 June)

Event Time Altitude Azimuth Distance (km) Brightness Sun altitude
Exits shadow 17:47:44 - 149° (SSE) 2,851 6.4 -7.8°
Reaches altitude 10° 17:48:46 10° 144° (SE) 2,515 6.1 -8.0°
Maximum altitude 17:53:23 26° 89° (E) 1,631 5.3 -8.7°
Drops below altitude 10° 17:57:58 10° 35° (NE) 2,487 6.7 -9.5°
Sets 18:00:43 0° 23° (NNE) 3,416 7.5 -9.9°
